Location: Barbara Bush Middle School
(32.9462°N, 96.9545°W)
Time: 02:45:25
(UTC+00:00)

Daily predictions for brighter satellites

Satellite Brightness Start Highest point End
(mag) Time Altitude Azimuth Time Altitude Azimuth Time Altitude Azimuth
Cosmos 2034 Rocket 4.1 01:45:54 10° N 01:52:08 69° E 01:58:22 10° SSE
NOSS 3-4 (A) 3.3 01:48:41 10° SSW 01:54:24 71° ESE 02:00:21 10° NE
NOSS 3-4 (C) 3.3 01:48:48 10° SSW 01:54:30 70° ESE 02:00:27 10° NE
OBJECT-B 1.4 01:56:20 10° SE 01:59:17 37° ENE 02:02:17 10° N
SAR-Lupe-1 4.4 01:56:03 10° NNE 01:59:28 43° E 02:02:53 10° S
SAR-Lupe-4 4.1 01:56:33 10° NNE 01:59:54 37° E 02:03:14 10° SSE
Cosmos 405 Rocket 2.8 01:56:56 10° S 02:00:41 58° E 02:04:33 10° NNE
Atlas Centaur 2 2.8 01:58:41 10° SSW 02:01:35 18° SSE 02:04:14 10° ESE
SJ-6B 3.3 01:58:31 10° SE 02:01:59 37° ENE 02:05:26 10° N
OAO 1 Rocket 4.5 01:57:26 10° WSW 02:02:46 70° SSE 02:08:05 10° ENE
ATLAS 2AS CENTAUR R/B 3.3 01:55:37 10° S 02:02:59 45° ESE 02:10:22 10° NE
Centaur D-1AR AC-39 3.5 01:58:49 10° WSW 02:05:47 24° SSW 02:08:58 10° SE
Cosmos 1437 Rocket 4.0 02:08:04 10° NNE 02:11:13 24° ENE 02:14:11 11° SE
Resurs 01 Rocket 3.4 02:09:05 10° ESE 02:11:49 16° ENE 02:14:34 10° NNE
Cosmos 1812 Rocket 3.8 02:09:33 10° N 02:14:02 77° W 02:18:29 10° S
Cosmos 1408 2.5 02:11:09 10° S 02:14:48 72° E 02:18:25 10° N
CZ-4 R/B 4.2 02:14:10 10° SW 02:17:06 19° W 02:20:04 10° NW
Cosmos 1825 Rocket 3.5 02:14:43 10° S 02:19:03 90° SW 02:23:25 10° N
RESURS DK-1 4.0 02:17:56 12° SE 02:19:56 16° ESE 02:22:26 10° ENE
OAO 3 Copernicus 4.3 02:15:34 10° WSW 02:20:35 80° SSE 02:25:38 10° ENE
Cosmos-2242 2.9 02:18:52 10° N 02:23:09 76° E 02:27:22 10° S
CENTAUR R/B 3.3 02:21:10 10° NNW 02:29:41 76° ENE 02:37:50 13° SE
Sakura Rocket 4.5 02:20:58 10° W 02:30:00 65° S 02:35:42 14° ESE
USA 267 3.9 02:25:19 10° ENE 02:30:58 30° SE 02:36:35 10° S
In-Cosmos 22 Rocket 4.4 02:25:43 10° SSW 02:31:00 72° W 02:36:19 10° N
Cosmos 44 Rocket 3.5 02:27:34 10° S 02:32:33 56° ESE 02:37:39 10° NE
Cosmos 1634 Rocket 4.0 02:30:57 10° N 02:37:14 72° E 02:43:25 10° SSE
Ariane Rocket 3.1 02:37:32 14° SSE 02:41:47 61° ENE 02:46:48 10° N
Helios 1A Rocket 3.3 02:37:50 10° S 02:41:48 62° W 02:45:48 10° NNW
ERS-2 2.0 02:38:43 10° NNE 02:42:22 86° ESE 02:45:59 10° SSW
IRS-1A Rocket 4.2 02:38:17 12° SSE 02:43:21 69° ENE 02:48:49 10° N
USA 238 DEB 3.9 02:37:01 10° NNW 02:44:28 90° ENE 02:50:46 16° SSE
USA 238 3.9 02:37:07 10° NNW 02:44:34 89° ENE 02:50:51 17° SSE
SEDSat Delta rocket 2.9 02:43:38 10° WSW 02:47:34 53° SSE 02:49:48 24° E
Cosmos 783 Rocket 4.4 02:42:51 10° S 02:47:58 65° ESE 02:53:07 10° NNE
OAO 2 Rocket 3.5 02:44:43 10° W 02:49:45 70° N 02:53:27 18° E
CZ-2C R/B 4.3 02:48:03 10° NNE 02:52:09 33° E 02:53:39 26° SE
Cosmos 1242 Rocket 2.7 02:49:10 10° N 02:52:39 49° E 02:53:50 33° SE
EPKM 3.8 02:52:17 10° SW 02:54:38 23° S 02:55:15 22° SSE
Cosmos 2221 3.3 02:51:08 10° NNE 02:55:02 33° E 02:56:12 28° ESE
USA 307 3.0 02:51:35 10° NW 02:55:49 62° NE 02:57:40 31° ESE
MOS 1 4.3 02:51:32 13° SSE 02:56:38 86° WSW 03:02:20 10° NNW
IGS 5A 3.4 03:04:14 33° SSE 03:05:59 70° ENE 03:10:06 10° N
Hubble Space Telescope 1.2 03:02:55 10° WSW 03:06:48 41° S 03:07:16 39° SSE
Cosmos 1697 Rocket 3.2 03:01:51 10° N 03:07:17 45° ENE 03:09:29 31° ESE
Cosmos 2082 Rocket 2.1 03:02:53 10° SSW 03:08:27 73° ESE 03:14:05 10° NNE
Cosmos 1606 3.5 03:07:57 10° NNE 03:11:14 32° ENE 03:11:14 32° ENE
SPOT 3 Rocket 3.6 03:09:28 32° SE 03:11:49 62° ENE 03:16:59 10° N
Cosmos 1833 Rocket 3.7 03:06:48 10° SW 03:12:12 47° WNW 03:17:38 10° N
USA 305 2.8 03:08:19 10° NW 03:12:31 80° SW 03:13:42 46° SSE
USA 308 2.8 03:08:25 10° NW 03:12:41 89° SW 03:13:51 47° SE
Resurs 1-3 4.4 03:10:54 16° S 03:14:12 47° W 03:18:26 10° NNW
Cosmos 773 Rocket 4.0 03:10:26 10° SSW 03:15:40 82° WNW 03:20:53 10° NNE
BREEZE-M R/B 3.7 03:06:35 10° SSW 03:15:55 42° SE 03:17:24 32° E
Cosmos 2151 3.8 03:23:49 34° ENE 03:23:49 34° ENE 03:27:02 10° NNE
SWAS 4.4 03:22:59 10° NNW 03:27:15 79° WSW 03:28:06 55° S
Cosmos 2058 4.5 03:25:38 10° SW 03:29:25 34° W 03:33:15 10° NNW
Landsat 7 3.9 03:28:04 37° S 03:29:55 73° WSW 03:34:41 10° NNW
Cosmos 1092 Rocket 4.3 03:29:20 39° ESE 03:30:38 45° E 03:36:32 10° NNE
Centaur D AC-29 3.5 03:16:43 10° W 03:32:31 28° SW 03:35:11 22° S
Cosmos 2279 Rocket 4.3 03:27:21 10° NNW 03:33:26 63° W 03:37:33 21° SSW
Cosmos 1842 Rocket 3.6 03:31:06 10° N 03:35:35 80° W 03:36:31 55° S
GP-B 4.3 03:31:58 10° NNE 03:34:53 28° ENE 03:34:53 28° ENE
USA 306 3.5 03:32:27 10° NW 03:36:31 45° SW 03:36:55 43° SW
Meteor 2-3 Rocket 4.0 03:36:27 45° ESE 03:36:48 45° E 03:42:10 10° NNE
Cosmos 1076 Rocket 3.7 03:39:35 46° SSW 03:40:43 68° W 03:45:03 10° N
ERS-1 Rocket 3.7 03:40:52 36° ENE 03:40:55 36° ENE 03:45:28 10° N
Spot 2 Rocket 3.6 03:41:46 54° E 03:42:16 56° ENE 03:47:16 10° N
Cosmos 2369 3.7 03:36:43 10° NNW 03:42:20 64° ENE 03:43:19 54° ESE
Resurs 01 Rocket 2.9 03:46:24 27° SW 03:47:59 36° W 03:52:04 10° NNW
Cosmos 2026 Rocket 4.1 03:49:09 50° ESE 03:49:50 52° E 03:55:57 10° NNE
Atlas Centaur 2 3.4 03:46:18 10° WSW 03:47:12 16° WSW 03:47:12 16° WSW
BREEZE M DEB (TANK) 3.2 03:47:43 10° WSW 03:50:24 65° NNW 04:02:02 10° ENE
Cosmos 1980 Rocket 2.3 03:47:55 10° N 03:53:27 56° ENE 03:53:52 54° E
ATLAS 2AS CENTAUR R/B 4.4 03:46:50 10° WSW 03:54:02 38° NW 04:01:12 10° NNE
Cosmos 1538 Rocket 4.1 03:53:58 37° SSW 03:56:01 71° WNW 04:01:14 10° NNE
Nadezhda 4 Rocket 4.4 03:52:26 23° SSW 03:56:17 60° W 04:02:23 10° N
RESURS DK-1 4.1 03:53:55 10° SW 03:57:38 32° WNW 04:01:22 10° N
Cosmos 158 Rocket 3.7 03:58:13 83° ESE 03:58:16 84° ESE 04:03:28 10° NNE
Cosmos 2322 Rocket 4.3 03:58:19 10° NNE 04:00:32 12° NE 04:00:59 12° ENE
USA 245 4.3 04:00:12 53° SSW 04:01:27 69° W 04:06:35 10° NNW
Cosmos 1633 4.5 04:03:09 25° W 04:03:34 25° W 04:06:36 10° NNW
H-2A R/B 3.6 04:01:02 10° WSW 04:02:15 15° WSW 04:02:15 15° WSW
OAO 3 Copernicus 4.4 04:00:14 10° W 04:05:15 69° N 04:05:31 67° NNE
SPOT 1/Viking Rocket 4.3 04:09:03 41° SW 04:10:00 46° W 04:14:59 10° NNW
USA 267 3.7 04:07:41 10° NE 04:14:05 60° NW 04:20:30 10° WSW
ARIANE 5 R/B 3.1 04:16:06 59° NW 04:16:06 59° NW 04:19:49 10° NNW
ATLAS 3B R/B 3.1 04:11:53 10° NNW 04:18:55 54° ENE 04:20:00 50° E
SPOT 5 3.5 04:23:22 46° NNW 04:23:22 46° NNW 04:26:27 10° NNW
Cosmos 1428 Rocket 4.4 04:21:28 71° SSW 04:22:07 81° W 04:28:16 10° N
SL-16 R/B 3.6 04:21:19 10° N 04:25:32 27° NE 04:25:32 27° NE
Terra 2.8 04:43:36 44° NNW 04:43:36 44° NNW 04:46:55 10° NNW
Cosmos 371 Rocket 4.4 04:40:28 10° NNW 04:43:47 40° NW 04:43:47 40° NW
Cosmos 2360 Rocket 3.8 05:11:18 10° N 05:14:46 27° NE 05:14:46 27° NE
Cosmos 1980 Rocket 4.5 05:33:44 10° WNW 05:35:39 14° W 05:35:39 14° W
Cosmos 2322 Rocket 3.5 05:39:35 10° NNW 05:42:47 35° NNW 05:42:47 35° NNW
ATLAS 3B R/B 4.4 06:03:23 10° NW 06:07:15 24° W 06:07:15 24° W
SL-16 R/B 4.2 06:05:06 10° NW 06:07:23 22° WNW 06:07:23 22° WNW
Cosmos 2219 Rocket 3.9 06:08:10 10° N 06:11:15 27° NNE 06:11:15 27° NNE
COSMOS 2455 4.1 06:27:36 37° N 06:27:36 37° N 06:31:22 10° NNE
USA 234 4.0 06:28:20 45° NW 06:28:20 45° NW 06:32:39 10° NW
ATLAS 5 CENTAUR R/B 4.1 06:48:51 10° N 06:53:46 27° NE 06:54:21 26° ENE
Lacrosse 5 4.5 06:57:57 14° NE 06:57:57 14° NE 06:58:38 10° NE
Cosmos 2333 Rocket 3.9 06:49:07 10° NNW 06:51:37 27° NNW 06:51:37 27° NNW
Cosmos 2360 Rocket 4.5 06:55:20 10° NW 06:56:30 15° NW 06:56:30 15° NW
Resurs 1-4 Rocket 4.3 07:01:35 10° NE 07:03:26 18° ENE 07:03:26 18° ENE
Cosmos 2297 Rocket 3.6 07:18:52 35° NNE 07:18:52 35° NNE 07:22:02 10° NNE
NOSS 3-1 (C) 4.3 07:12:00 10° NNW 07:18:38 64° NW 07:18:38 64° NW
Cosmos 2227 Rocket 3.5 07:29:32 36° NNE 07:29:32 36° NNE 07:32:50 10° NNE
Cosmos 2237 Rocket 3.5 07:22:24 10° N 07:26:22 36° NNE 07:26:22 36° NNE
USA 229 DEB 4.1 07:23:53 10° NNW 07:30:33 71° N 07:30:33 71° N
USA 229 4.0 07:23:59 10° NNW 07:30:42 71° N 07:30:42 71° N
CZ-2D R/B 3.4 07:38:56 10° NNE 07:42:21 37° NE 07:42:21 37° NE
ADEOS II 4.0 07:41:44 10° NE 07:44:45 23° ENE 07:44:45 23° ENE
SL-16 R/B 4.2 07:47:05 10° N 07:51:27 22° ENE 07:53:48 18° E
NOSS 3-1 (A) 4.1 07:43:56 10° NNW 07:51:23 75° WNW 07:51:23 75° WNW
Cosmos 2263 Rocket 4.2 07:54:29 18° E 07:54:29 18° E 07:57:44 10° ENE
Cosmos 2344 4.2 08:04:50 41° ESE 08:05:09 41° ESE 08:11:59 10° NE
Cosmos 2219 4.4 08:16:32 33° NW 08:16:32 33° NW 08:20:38 10° N
Cosmos 2251 Rocket 4.2 08:36:33 47° NNW 08:36:33 47° NNW 08:40:34 10° N
Cosmos 2082 4.2 08:36:22 51° NW 08:36:22 51° NW 08:41:11 10° N
IDEFIX/ARIANE 42P 3.4 08:31:33 10° NNE 08:36:25 42° E 08:36:25 42° E
Lacrosse 5 3.6 08:37:08 24° NW 08:37:08 24° NW 08:41:02 10° NNE
ATLAS 5 CENTAUR R/B 3.6 08:32:41 10° NW 08:35:47 31° WNW 08:35:47 31° WNW
Cosmos 2184 Rocket 4.1 08:44:11 58° WNW 08:44:11 58° WNW 08:49:57 10° N
SL-16 R/B 2.6 08:45:15 59° WNW 08:45:15 59° WNW 08:50:37 10° NNW
Resurs 1-4 Rocket 3.3 08:40:48 10° N 08:44:30 31° NW 08:44:30 31° NW
USA 215 4.0 08:41:02 10° ENE 08:47:01 38° SE 08:47:58 36° SE
Cosmos 1733 Rocket 4.4 08:50:26 34° NNW 08:50:26 34° NNW 08:53:09 10° N
Cosmos 1295 Rocket 4.3 08:49:06 77° SSE 08:49:34 86° E 08:55:42 10° N
Cosmos 2154 Rocket 3.8 08:50:41 78° WSW 08:50:53 79° W 08:57:06 10° N
Cosmos 1190 Rocket 4.4 08:51:32 53° ESE 08:51:42 54° ESE 08:56:52 10° NNE
SL-8 R/B 4.3 08:53:11 50° N 08:53:11 50° N 08:57:20 10° NE
Cosmos 1140 Rocket 3.5 08:54:55 75° E 08:54:55 75° E 09:00:03 10° NNE
Cosmos 2297 Rocket 4.4 09:00:40 12° WNW 09:01:03 12° NW 09:03:05 10° NNW
MSX 4.0 09:02:58 10° NNE 09:08:40 65° ESE 09:10:10 47° SSE
Okean 2 3.8 09:05:23 10° N 09:09:08 62° NE 09:09:08 62° NE
Cosmos 2237 Rocket 4.3 09:07:21 10° NW 09:08:08 13° WNW 09:08:08 13° WNW
Cosmos 2227 Rocket 4.3 09:11:21 13° WNW 09:11:48 13° NW 09:14:22 10° NNW
ARIANE 5 R/B 3.4 09:08:47 10° NNE 09:13:43 43° E 09:15:40 30° SSE
Meteor 1-28 Rocket 4.4 09:16:25 35° NNW 09:16:25 35° NNW 09:18:42 10° NNW
ADEOS Rocket 3.3 09:16:08 42° W 09:16:08 42° W 09:20:39 10° NNW
Milstar 3 3.5 09:15:44 34° S 09:16:19 34° SSE 09:22:13 10° E
CZ-2D R/B 4.0 09:20:37 10° NNW 09:23:40 16° WNW 09:23:40 16° WNW
Cosmos 1782 Rocket 3.9 09:23:30 49° SE 09:24:18 58° E 09:28:34 10° NNE
ADEOS II 3.0 09:21:01 10° N 09:25:37 32° WNW 09:25:41 32° WNW
SL-8 Rocket 4.0 09:24:58 35° S 09:27:46 78° E 09:33:55 10° N
Cosmos 2227 4.1 09:27:45 54° SW 09:28:54 69° WNW 09:34:30 10° NNE
IRS-1D 4.1 09:24:26 10° N 09:29:02 39° WNW 09:29:10 39° WNW
Delta 142 4.3 09:29:33 50° SW 09:30:28 56° S 09:35:33 10° ESE
Cosmos 2366 rocket 4.3 09:26:46 25° SSE 09:30:33 66° E 09:36:51 10° NNE
NOSS 3-3 (A) 4.1 09:32:01 42° W 09:33:25 51° NW 09:39:27 10° NNE
ATLAS CENTAUR R/B 1.3 09:33:49 63° NNW 09:33:49 63° NNW 09:37:20 10° NNE
NOSS 3-3 (C) 4.1 09:32:09 42° W 09:33:31 51° NW 09:39:32 10° NNE
Cosmos 676 Rocket 4.0 09:32:40 45° S 09:34:19 82° ESE 09:39:40 10° NNE
IRS-1C 4.0 09:29:15 10° NNE 09:34:36 89° WNW 09:36:27 43° SSW
Iridium 4 Rocket 4.1 09:29:23 10° NNW 09:34:43 45° W 09:35:32 43° WSW
SL-16 R/B 2.5 09:30:24 10° NW 09:35:34 42° W 09:35:34 42° W
Cosmos 2263 Rocket 2.6 09:36:11 41° W 09:37:22 47° WNW 09:42:51 10° N
Iridium 45 4.4 09:38:41 83° SE 09:38:45 84° E 09:42:16 10° N
Cosmos 407 Rocket 4.3 09:41:19 32° W 09:42:02 33° WNW 09:46:48 10° N
Cosmos 1707 2.9 09:41:43 10° NNW 09:45:07 52° WNW 09:45:07 52° WNW
Spot 1 3.9 09:47:00 26° SSE 09:49:22 87° ENE 09:53:28 10° NNW
CZ-4C R/B 3.3 09:43:13 10° NNW 09:50:57 73° ENE 09:59:35 10° SE
ALOS 3.9 09:47:43 10° NE 09:51:49 30° E 09:55:53 10° SSE
Delta 128 3.9 09:51:46 42° SSW 09:52:27 45° S 09:57:08 10° ESE
Cosmos 2341 Rocket 4.3 09:51:38 33° SW 09:53:58 48° W 09:59:58 10° N
Cosmos 1733 3.6 09:52:52 29° SSE 09:54:40 61° E 09:58:28 10° NNE
Cosmos 2218 Rocket 4.0 09:52:26 26° SSW 09:56:17 74° W 10:02:38 10° N
Cosmos 1766 4.1 09:54:22 18° SSE 09:56:55 47° E 10:00:39 10° NNE
SL-08 R/B 3.7 09:52:17 10° SSE 09:57:10 70° ENE 10:02:06 10° N
In-Cosmos 22 4.2 09:52:44 10° NNW 09:58:27 63° W 10:02:30 19° S
Cosmos 1300 Rocket 3.7 10:01:45 20° S 10:04:41 73° E 10:09:01 10° N
Meteor 1-15 Rocket 4.5 10:00:39 13° S 10:05:54 77° E 10:11:48 10° NNE
Cosmos 1844 4.4 10:07:35 10° S 10:12:50 49° ESE 10:18:11 10° NNE
Cosmos 1975 Rocket 2.9 10:10:31 10° N 10:14:53 74° W 10:19:12 10° S
Cosmos 1943 3.2 10:09:37 10° NNW 10:15:21 90° E 10:21:02 10° SSE
IDEFIX/ARIANE 42P 4.1 10:12:04 10° NNW 10:15:39 19° WNW 10:17:13 17° W
Cosmos 1340 2.6 10:13:34 10° NNW 10:17:16 60° W 10:20:00 17° S
Cosmos 1400 Rocket 2.9 10:16:10 29° SW 10:17:50 51° W 10:21:38 10° N
CZ-3B R/B 3.6 10:12:03 20° WSW 10:19:00 46° S 10:24:08 10° ESE
CZ-2C R/B 2.2 10:14:50 10° N 10:19:25 77° WNW 10:23:06 16° SSW
Cosmos 1626 2.0 10:17:37 10° N 10:21:18 88° ENE 10:24:58 10° S
Cosmos 1315 Rocket 3.9 10:21:33 10° SSE 10:25:29 46° E 10:29:24 10° NNE
Cosmos 1674 3.2 10:24:05 10° NNW 10:27:39 38° W 10:30:00 18° SSW
USA 215 3.7 10:23:46 10° NNE 10:30:01 50° NW 10:35:19 15° WSW
PSLV R/B 3.6 10:33:12 10° NNE 10:37:29 79° ESE 10:41:42 10° S
Cosmos 1850 Rocket 4.1 10:33:53 12° SSW 10:38:44 67° WNW 10:44:00 10° N
METEOR-M 4.4 10:35:13 10° NNE 10:40:33 74° ESE 10:45:52 10° S
ASTRO E2 2.6 10:40:22 14° W 10:43:43 71° S 10:47:41 10° E
Cosmos 468 Rocket 4.1 10:42:25 10° NNW 10:47:43 84° ENE 10:52:56 10° SSE
Cosmos 1025 Rocket 3.1 10:44:23 10° NNW 10:48:35 53° W 10:52:49 10° S
Iridium 51 4.4 10:45:20 10° SSW 10:48:38 41° W 10:51:55 10° NNW
Meteor 2-5 Rocket 4.0 10:43:05 10° N 10:49:00 79° E 10:54:48 10° S
Cosmos 1821 Rocket 4.0 10:43:08 10° SSW 10:49:14 64° W 10:55:18 10° N
Cosmos 44 3.6 10:45:42 10° NW 10:50:31 43° WSW 10:55:01 10° S
Cosmos 1844 Rocket 2.9 10:45:26 10° SW 10:50:56 58° WNW 10:56:32 10° NNE
ARIANE 5 R/B 4.1 10:48:53 10° NNW 10:52:26 19° WNW 10:56:00 10° WSW
Okean 2 Rocket 3.9 10:55:05 10° SW 10:59:11 34° W 11:03:20 10° NNW
Aureole 1 Rocket 3.7 10:55:06 10° SSW 10:59:55 88° WNW 11:06:24 10° NNE
FENGYUN 3A 4.1 10:55:54 10° N 11:01:02 44° WNW 11:06:07 10° SW
CZ-2C R/B 3.8 10:59:07 10° NNW 11:02:16 26° WNW 11:05:27 10° SW
Cosmos 1603 4.4 10:57:47 10° NW 11:02:42 32° WSW 11:07:36 10° SSW
BREEZE M DEB (TANK) 2.3 11:01:09 10° SW 11:07:21 82° NW 11:09:57 10° NE
DNEPR-1 R/B 4.3 11:02:25 10° SW 11:08:11 56° WNW 11:12:59 10° NNE
MOS 1 Rocket 3.6 11:04:02 10° S 11:08:53 58° W 11:14:03 10° NNW
Cosmos 1758 3.4 11:06:44 10° S 11:10:39 79° E 11:14:37 10° N
Cosmos 1867 3.7 11:05:48 10° SW 11:11:10 66° WNW 11:16:37 10° NNE
